Location: Chenereilles
(45.4866°N, 4.0790°E)
Time: 21:07:58
(UTC+00:00)

Cosmos 2016 Rocket - Pass Details

Date: 12 November 2019
Orbit: 947 x 1000 km, 83.0° (Epoch: 12 December)

Event Time Altitude Azimuth Distance (km) Brightness Sun altitude
Rises 16:39:03 0° 351° (N) 3,732 6.9 -4.4°
Reaches altitude 10° 16:41:35 10° 352° (N) 2,780 6.3 -4.8°
Maximum altitude 16:48:00 89° 77° (ENE) 1,007 4.1 -5.8°
Drops below altitude 10° 16:54:22 10° 173° (S) 2,755 6.5 -6.9°
Sets 16:56:52 0° 174° (S) 3,695 7.2 -7.3°
